ES'HAIL 1

Last updated on Wed Sep 09 2026 00:03:00 GMT+0000 (Coordinated Universal Time)

1 39233U 13044A 26251.52144229 .00000000 00000+0 00000+0 0 9995 2 39233 0.0247 354.5880 0002215 179.8682 26.3773 1.00274727 47468
UTC large
Height (km)
Speed (km/s)
/
Latitude / Longitude
Inclination (degrees)
Orbital Period (minutes)
Azimuth
Elevation
Range (km)
Doppler Factor

Next 0 passes for location: London (51.5072 / 0.1276)

No passes found over London.
ES'HAIL 1